Voltar ao catálogo

THORAD AGENA D DEB

AtivoLEO
NORAD 4207·DEBRIS·🇺🇸 United States

Lançado Sep 30, 1969 de Vandenberg Space Force Base

Loading…

Próximas Passagens (próximas 24 horas)

TLE

AtualizadoSource: Space-Track

Época: Sep 14, 2026, 10:48 UTC

1 04207U 69082BW  26257.45043371  .00002599  00000-0  43100-3 0  9993
2 04207  69.9581  68.6860 0020743  62.1598 298.1645 14.71271485980073

Acompanhe THORAD AGENA D DEB em tempo real com AllMySat

Download on the App Store